WetterOnline ( https://www.wetteronline.at )

Wetter aktuell Pforzheim

Aktuelles Wetter: Mühlacker (245m)

6-stündlich | Neueste Meldungen
Ortszeit Temperatur Wetter
Di, 02.06. 20:00 25.1° C leicht bewölkt
Di, 02.06. 14:00 26.1° C leicht bewölkt
Di, 02.06. 8:00 14.4° C wolkenlos
Di, 02.06. 2:00 11.0° C wolkenlos
Mo, 01.06. 20:00 24.7° C wolkenlos
Mo, 01.06. 14:00 24.6° C leicht bewölkt
Mo, 01.06. 8:00 14.6° C wolkenlos
Mo, 01.06. 2:00 10.0° C wolkenlos
Ortszeit Temperatur Wetter
Mi, 03.06. 1:00 12.0° C bewölkt
Mi, 03.06. 0:50 12.0° C bewölkt
Mi, 03.06. 0:40 12.2° C bedeckt
Mi, 03.06. 0:30 12.3° C bedeckt
Mi, 03.06. 0:20 12.3° C bedeckt
Mi, 03.06. 0:10 12.7° C bedeckt
Mi, 03.06. 0:00 12.7° C bewölkt
Di, 02.06. 23:30 13.4° C wolkig
Di, 02.06. 23:00 14.4° C wolkig
Di, 02.06. 22:30 15.0° C wolkig
Di, 02.06. 22:00 16.3° C leicht bewölkt
Ortszeit Relative Feuchte Sichtweite
Di, 02.06. 20:00 32% 50 km
Di, 02.06. 14:00 30% 35 km
Di, 02.06. 8:00 69% 29 km
Di, 02.06. 2:00 74% 45 km
Mo, 01.06. 20:00 30% 45 km
Mo, 01.06. 14:00 31% 35 km
Mo, 01.06. 8:00 62% 45 km
Mo, 01.06. 2:00 72% 70 km
Ortszeit Relative Feuchte Sichtweite
Mi, 03.06. 1:00 82% 50 km
Mi, 03.06. 0:50 82% -
Mi, 03.06. 0:40 79% -
Mi, 03.06. 0:30 80% 50 km
Mi, 03.06. 0:20 80% -
Mi, 03.06. 0:10 77% -
Mi, 03.06. 0:00 78% 55 km
Di, 02.06. 23:30 72% 50 km
Di, 02.06. 23:00 69% 65 km
Di, 02.06. 22:30 69% 65 km
Di, 02.06. 22:00 65% 65 km
Ortszeit Niederschlagsmenge Niederschlagsart
Di, 02.06. 20:00 0.0 l/m2 in 12 Std. -
Di, 02.06. 14:00 0.0 l/m2 in 6 Std. -
Di, 02.06. 8:00 0.0 l/m2 in 12 Std. -
Di, 02.06. 2:00 0.0 l/m2 in 6 Std. -
Mo, 01.06. 20:00 0.0 l/m2 in 12 Std. -
Mo, 01.06. 14:00 0.0 l/m2 in 6 Std. -
Mo, 01.06. 8:00 0.0 l/m2 in 12 Std. -
Mo, 01.06. 2:00 0.0 l/m2 in 6 Std. -
Ortszeit Niederschlagsmenge Niederschlagsart
Mi, 03.06. 1:00 0.0 l/m2 in 1 Std. -
Mi, 03.06. 0:50 keine Meldung -
Mi, 03.06. 0:40 keine Meldung -
Mi, 03.06. 0:30 0.0 l/m2 in 1 Std. -
Mi, 03.06. 0:20 keine Meldung -
Mi, 03.06. 0:10 keine Meldung -
Mi, 03.06. 0:00 0.0 l/m2 in 1 Std. -
Di, 02.06. 23:30 0.0 l/m2 in 1 Std. -
Di, 02.06. 23:00 0.0 l/m2 in 1 Std. -
Di, 02.06. 22:30 0.0 l/m2 in 1 Std. -
Di, 02.06. 22:00 0.0 l/m2 in 1 Std. -
Ortszeit Stärke Spitze Richtung
km/h Bft. km/h Grad Sektor
Di, 02.06. 20:00 9 2 35 360° N
Di, 02.06. 14:00 7 2 18 140° SO
Di, 02.06. 8:00 4 1 4 110° O
Di, 02.06. 2:00 4 1 25 50° NO
Mo, 01.06. 20:00 14 3 29 50° NO
Mo, 01.06. 14:00 15 3 33 60° NO
Mo, 01.06. 8:00 7 2 14 120° SO
Mo, 01.06. 2:00 0 0 32 - -
Ortszeit Stärke Spitze Richtung
km/h Bft. km/h Grad Sektor
Mi, 03.06. 1:00 0 0 4 - -
Mi, 03.06. 0:50 0 0 - 80° O
Mi, 03.06. 0:40 0 0 - - -
Mi, 03.06. 0:30 0 0 4 - -
Mi, 03.06. 0:20 0 0 - 190° S
Mi, 03.06. 0:10 0 0 - 40° NO
Mi, 03.06. 0:00 0 0 4 - -
Di, 02.06. 23:30 0 0 4 - -
Di, 02.06. 23:00 4 1 4 40° NO
Di, 02.06. 22:30 0 0 4 - -
Di, 02.06. 22:00 0 0 4 - -
Ortszeit Untergrenze Bedeckung Gattung
total tief tief mittel hoch
Di, 02.06. 20:00 9000 m 5/8 0/8 - - -
Di, 02.06. 14:00 1800 m 3/8 3/8 - - -
Di, 02.06. 8:00 - 0/8 0/8 - - -
Di, 02.06. 2:00 - 0/8 0/8 - - -
Mo, 01.06. 20:00 - 0/8 0/8 - - -
Mo, 01.06. 14:00 1800 m 2/8 2/8 - - -
Mo, 01.06. 8:00 - 0/8 0/8 - - -
Mo, 01.06. 2:00 - 0/8 0/8 - - -
Ortszeit Bedeckungsgrad in Achtel und Wolkenuntergrenze
Mi, 03.06. 1:00 6(6600m) 8(7200m)
Mi, 03.06. 0:50 6(6600m) 8(7200m)
Mi, 03.06. 0:40 8(6600m)
Mi, 03.06. 0:30 8(6300m) 8(9000m)
Mi, 03.06. 0:20 8(6300m) 8(9000m)
Mi, 03.06. 0:10 8(6300m) 8(9000m)
Mi, 03.06. 0:00 7(6300m) 8(7200m)
Di, 02.06. 23:30 8(7200m) 8(9000m) 8(9000m)
Di, 02.06. 23:00 8(7200m)
Di, 02.06. 22:30 6(7500m) 7(10500m)
Di, 02.06. 22:00 3(10500m)
Ortszeit Luftdruck NN (hPa) Tendenz (hPa in 3 Std.)
Di, 02.06. 20:00 1012 - 1,5
Di, 02.06. 14:00 1015 - 1,6
Di, 02.06. 8:00 1018 + 0,1
Di, 02.06. 2:00 1019 + 0,1
Mo, 01.06. 20:00 1017 - 0,5
Mo, 01.06. 14:00 1019 - 0,9
Mo, 01.06. 8:00 1021 + 0,3
Mo, 01.06. 2:00 1022 + 0,4
Ortszeit Luftdruck NN (hPa) Tendenz (hPa in 3 Std.)
Mi, 03.06. 1:00 1012 - 0,6
Mi, 03.06. 0:50 1012 keine Meldung
Mi, 03.06. 0:40 1012 keine Meldung
Mi, 03.06. 0:30 1012 - 0,5
Mi, 03.06. 0:20 1012 keine Meldung
Mi, 03.06. 0:10 1012 keine Meldung
Mi, 03.06. 0:00 1012 - 0,3
Di, 02.06. 23:30 1012 - 0,3
Di, 02.06. 23:00 1012 - 0,3
Di, 02.06. 22:30 1012 - 0,5
Di, 02.06. 22:00 1012 - 0,8
Ortszeit Schneehöhe (cm)
Di, 02.06. 20:00 -
Di, 02.06. 14:00 -
Di, 02.06. 8:00 -
Di, 02.06. 2:00 -
Mo, 01.06. 20:00 -
Mo, 01.06. 14:00 -
Mo, 01.06. 8:00 -
Mo, 01.06. 2:00 -
Ortszeit Schneehöhe (cm)
Mi, 03.06. 1:00 -
Mi, 03.06. 0:50 -
Mi, 03.06. 0:40 -
Mi, 03.06. 0:30 -
Mi, 03.06. 0:20 -
Mi, 03.06. 0:10 -
Mi, 03.06. 0:00 -
Di, 02.06. 23:30 -
Di, 02.06. 23:00 -
Di, 02.06. 22:30 -
Di, 02.06. 22:00 -
Link zu dieser Seite / Seite empfehlen

Das Wetter in ...